Location: Alsip
(41.6689°N, 87.7387°W)
Time: 14:35:43
(UTC+00:00)

Cosmos 1633 - Pass Details

Date: 14 July 2020
Orbit: 463 x 482 km, 82.5° (Epoch: 12 August)

Event Time Altitude Azimuth Distance (km) Brightness Sun altitude
Exits shadow 04:39:14 35° 38° (NE) 791 3.8 -24.2°
Drops below altitude 10° 04:41:34 10° 17° (NNE) 1,653 5.9 -24.4°
Sets 04:43:41 0° 13° (NNE) 2,532 7.1 -24.5°
